Sussex, NJ

2:21 PM EST on December 05, 2019 (GMT -0500)
Sussex

Weather History for KFWN - September, 2019

Change the Weather History Date:

Sunday, September 29, 2019

  Actual Average Record
Temperature  
Mean Temperature 68 °F -  
Max Temperature 79 °F 67 °F 86 °F (1948)
Min Temperature 59 °F 43 °F 28 °F (1957)
Cooling Degree Days 4    
Growing Degree Days 18 (Base 50)    
Moisture  
Dew Point 56 °F    
Average Humidity 78    
Maximum Humidity 97    
Minimum Humidity 29    
Precipitation  
Precipitation 0.00 in - - ()
Sea Level Pressure  
Sea Level Pressure 30.19 in    
Wind  
Wind Speed 1 mph ()    
Max Wind Speed 12 mph    
Max Gust Speed 16 mph    
Visibility 5.2 miles    
Events Fog    
Averages and records for this station are not official NWS values.
T = Trace of Precipitation, MM = Missing Value Source: Averaged Metar Reports

Daily Weather History Graph

Daily Weather History Graph

Search for Another Location

Airport or City:

Astronomy

Sep. 29, 2019 Rise Set
Actual Time 6:52 AM EDT 6:44 PM EDT
Civil Twilight 6:25 AM EDT 7:11 PM EDT
Nautical Twilight 5:53 AM EDT 7:43 PM EDT
Astronomical Twilight 5:20 AM EDT 8:15 PM EDT
Moon 7:40 AM EDT (9/29) 7:42 PM EDT (9/29)
Length of Visible Light 12h 46m
Length of Day
11h 51m
New Moon, 1% of the Moon is Illuminated
Sep 29
New Moon
Oct 5
First Quarter
Oct 13
Full
Oct 21
Last Quarter
Oct 27
New

Hourly Weather History & Observations

Time (EDT) Temp. Dew Point Humidity Pressure Visibility Wind Dir Wind Speed Gust Speed Precip Events Conditions
12:53 AM 66.0 °F 64.0 °F 93% 30.11 in 4.0 mi Calm Calm - N/A   Scattered Clouds
1:24 AM 64.9 °F 63.0 °F 93% 30.12 in 1.8 mi Calm Calm - N/A   Clear
1:34 AM 64.9 °F 63.0 °F 93% 30.12 in 3.0 mi Calm Calm - N/A   Clear
1:38 AM 64.0 °F 63.0 °F 96% 30.12 in 1.5 mi Calm Calm - N/A   Clear
1:42 AM 64.0 °F 63.0 °F 96% 30.12 in 0.8 mi Calm Calm - N/A   Clear
1:49 AM 64.4 °F 62.6 °F 94% 30.12 in 1.5 mi Calm Calm - N/A   Clear
1:53 AM 64.0 °F 63.0 °F 96% 30.12 in 2.0 mi Calm Calm - N/A   Clear
2:00 AM 64.0 °F 63.0 °F 96% 30.13 in 1.8 mi Calm Calm - N/A   Scattered Clouds
2:02 AM 64.0 °F 63.0 °F 96% 30.13 in 1.0 mi Calm Calm - N/A   Mist
2:11 AM 63.0 °F 62.1 °F 97% 30.13 in 0.2 mi Calm Calm - N/A Fog Fog
2:26 AM 64.0 °F 62.1 °F 93% 30.13 in 2.0 mi Calm Calm - N/A   Mostly Cloudy
2:28 AM 64.0 °F 62.1 °F 93% 30.13 in 1.0 mi Calm Calm - N/A   Mist
2:35 AM 63.0 °F 62.1 °F 97% 30.13 in 0.2 mi Calm Calm - N/A Fog Fog
2:44 AM 63.0 °F 62.1 °F 97% 30.12 in 1.8 mi Calm Calm - N/A   Partly Cloudy
2:53 AM 63.0 °F 61.0 °F 93% 30.12 in 1.5 mi Calm Calm - N/A   Partly Cloudy
3:11 AM 61.0 °F 60.1 °F 97% 30.12 in 3.0 mi Calm Calm - N/A   Clear
3:16 AM 61.0 °F 60.1 °F 97% 30.12 in 2.0 mi Calm Calm - N/A   Partly Cloudy
3:19 AM 61.0 °F 60.1 °F 97% 30.12 in 1.2 mi SSE 3.5 mph - N/A   Partly Cloudy
3:28 AM 63.0 °F 61.0 °F 93% 30.13 in 2.0 mi Calm Calm - N/A   Partly Cloudy
3:36 AM 63.0 °F 61.0 °F 93% 30.14 in 6.0 mi Calm Calm - N/A   Partly Cloudy
3:53 AM 61.0 °F 60.1 °F 97% 30.14 in 5.0 mi Calm Calm - N/A   Clear
4:30 AM 61.0 °F 59.0 °F 93% 30.16 in 2.5 mi Calm Calm - N/A   Clear
4:44 AM 62.1 °F 60.1 °F 93% 30.16 in 1.8 mi Calm Calm - N/A   Clear
4:49 AM 62.6 °F 60.8 °F 94% 30.16 in 3.0 mi Calm Calm - N/A   Clear
4:53 AM 62.1 °F 60.1 °F 93% 30.16 in 6.0 mi Calm Calm - N/A   Clear
5:53 AM 61.0 °F 59.0 °F 93% 30.18 in 4.0 mi Calm Calm - N/A   Clear
6:24 AM 60.1 °F 59.0 °F 96% 30.19 in 2.5 mi Calm Calm - N/A   Clear
6:44 AM 60.1 °F 59.0 °F 96% 30.20 in 8.0 mi Calm Calm - N/A   Scattered Clouds
6:53 AM 61.0 °F 59.0 °F 93% 30.20 in 5.0 mi Calm Calm - N/A   Mostly Cloudy
7:04 AM 60.1 °F 59.0 °F 96% 30.21 in 1.8 mi SSE 4.6 mph - N/A   Mostly Cloudy
7:13 AM 61.0 °F 59.0 °F 93% 30.21 in 4.0 mi Calm Calm - N/A   Mostly Cloudy
7:53 AM 64.0 °F 62.1 °F 93% 30.22 in 10.0 mi Variable 3.5 mph - N/A   Scattered Clouds
8:53 AM 69.1 °F 61.0 °F 75% 30.24 in 10.0 mi NE 4.6 mph - 0.00 in   Overcast
9:53 AM 70.0 °F 55.9 °F 61% 30.27 in 10.0 mi North 5.8 mph - N/A   Partly Cloudy
10:53 AM 72.0 °F 57.0 °F 59% 30.27 in 10.0 mi ENE 10.4 mph - N/A   Mostly Cloudy
11:53 AM 73.9 °F 57.0 °F 55% 30.27 in 10.0 mi ESE 5.8 mph - 0.00 in   Partly Cloudy
12:53 PM 75.9 °F 55.0 °F 48% 30.26 in 10.0 mi NE 6.9 mph 16.1 mph 0.00 in   Partly Cloudy
1:53 PM 78.1 °F 55.0 °F 45% 30.25 in 10.0 mi NE 8.1 mph - N/A   Clear
2:53 PM 78.1 °F 55.0 °F 45% 30.24 in 10.0 mi Variable 5.8 mph - N/A   Clear
3:53 PM 77.0 °F 54.0 °F 45% 30.24 in 10.0 mi ENE 6.9 mph - N/A   Clear
4:53 PM 75.0 °F 48.9 °F 40% 30.24 in 10.0 mi ENE 11.5 mph - N/A   Clear
5:53 PM 70.0 °F 36.0 °F 29% 30.27 in 10.0 mi NE 6.9 mph - N/A   Clear
6:53 PM 66.9 °F 35.1 °F 31% 30.29 in 10.0 mi NNE 9.2 mph - N/A   Clear
7:53 PM 64.0 °F 35.1 °F 34% 30.30 in 10.0 mi NNE 8.1 mph - N/A   Partly Cloudy
8:53 PM 61.0 °F 37.9 °F 42% 30.30 in 10.0 mi NNE 4.6 mph - N/A   Clear
9:53 PM 61.0 °F 36.0 °F 39% 30.32 in 10.0 mi North 5.8 mph - N/A   Clear
10:53 PM 59.0 °F 37.0 °F 44% 30.31 in 10.0 mi NNE 5.8 mph - N/A   Clear
11:53 PM 59.0 °F 37.0 °F 44% 30.33 in 10.0 mi North 5.8 mph - N/A   Clear